GFSFLT1_500_rhum_057.txt.gz
RH
4 5 5 6 6 7 10 12 13 14 14 14 15 14 13 11 11 11 12 14 14 16 20 24 29 31 31 30 30 33 34 33 32
4 4 5 5 6 6 9 12 14 16 16 15 15 16 15 15 14 15 17 20 22 26 30 34 37 37 36 36 38 37 38 38 37
4 4 4 4 5 5 6 6 7 8 9 10 12 14 18 19 20 21 24 27 29 30 33 37 38 38 41 41 40 42 43 43 43
7 10 9 6 5 5 5 5 5 6 6 7 8 11 14 18 19 21 23 27 32 36 37 39 43 43 45 45 43 44 45 47 47
16 18 14 6 5 4 4 4 4 5 5 6 7 10 13 14 17 19 20 24 28 29 31 34 37 38 40 42 40 39 43 46 48
20 25 10 5 4 4 4 4 5 5 6 7 8 10 12 14 16 20 21 23 25 26 27 28 29 29 28 28 30 30 32 40 42
21 21 6 5 5 5 5 5 5 6 6 8 9 9 12 13 16 17 18 23 24 27 28 28 28 26 26 26 26 29 31 37 42
16 12 6 5 6 6 6 7 7 7 8 9 9 8 11 12 15 19 18 19 25 24 26 26 27 28 27 28 32 34 33 33 37
8 8 6 6 6 7 8 10 10 7 6 6 8 9 10 8 10 16 21 22 25 29 30 31 31 34 35 35 35 36 39 45 42
11 7 6 6 6 8 9 10 11 9 5 6 6 7 8 7 9 18 23 27 28 32 37 37 38 38 31 30 35 36 35 41 49
29 14 22 16 17 23 10 9 13 11 7 6 6 6 8 8 9 13 22 27 30 34 36 37 34 27 32 36 39 40 39 49 55
58 53 20 20 22 21 24 17 17 15 13 8 7 7 9 10 11 11 21 20 26 31 33 31 29 28 28 28 28 32 39 42 48
41 55 50 36 30 29 29 27 28 35 25 15 11 9 14 15 14 15 17 22 22 25 25 24 25 28 30 27 30 35 41 43 52
39 43 44 42 36 36 35 38 34 40 38 28 22 17 20 24 26 30 33 32 30 25 26 27 26 26 33 33 30 31 38 46 53
27 40 47 52 61 51 52 57 57 47 50 52 38 31 23 40 45 47 54 65 70 52 34 30 34 30 30 37 40 36 32 31 31
12 12 12 20 32 46 63 55 64 66 67 65 57 49 42 53 55 67 76 79 88 84 67 53 42 44 38 37 38 38 43 47 44
12 12 13 13 16 30 47 58 52 59 70 71 75 82 77 69 75 86 87 84 85 92 93 97 92 62 61 55 44 44 37 36 44
12 11 11 12 12 14 23 42 56 55 58 78 79 89 94 95 84 86 93 90 83 78 92 85 92 96 96 94 94 76 64 51 43
20 21 25 27 40 41 39 45 71 79 69 78 75 84 93 95 88 99 97 85 81 86 81 81 81 91 94 92 89 84 76 82 76
17 19 19 24 26 37 59 65 67 78 83 78 92 94 86 90 78 87 100 82 74 70 76 78 78 78 82 83 79 78 78 88 83

GFSFLT1_500_rhum_060.txt.gz
RH
3 2 2 3 3 3 4 5 8 10 15 16 17 16 14 15 14 14 14 16 16 18 19 22 27 28 32 34 36 36 35 35 37
2 2 2 2 3 3 4 4 5 6 7 8 8 8 10 12 16 18 19 19 19 23 26 28 31 34 36 38 39 40 41 41 39
2 3 3 6 8 7 4 4 4 4 4 4 5 5 6 10 11 16 18 19 19 22 25 31 34 36 37 39 39 38 38 39 39
3 5 8 13 15 7 3 3 3 4 3 4 4 4 5 6 8 10 13 16 17 19 21 25 28 31 31 30 30 30 31 32 34
3 7 12 17 17 4 3 3 3 3 4 4 4 4 4 6 7 8 9 11 14 15 19 22 23 24 25 25 26 28 27 28 27
3 5 11 16 10 4 3 3 3 4 4 4 4 5 5 5 7 6 8 11 13 14 16 18 21 23 25 24 23 24 23 25 26
7 10 10 11 6 4 4 4 4 5 6 6 5 5 5 5 7 5 6 10 12 14 16 20 20 22 24 25 25 24 30 32 34
22 20 12 7 5 4 4 4 5 7 8 8 6 5 5 5 7 6 6 8 12 15 18 19 22 22 25 27 30 30 31 30 31
14 17 20 7 5 5 5 5 6 7 8 9 8 6 5 4 6 6 6 8 12 16 20 20 20 24 28 30 29 22 22 30 31
18 25 32 21 15 19 14 15 21 10 8 12 10 7 6 5 6 8 7 8 11 14 20 20 22 24 28 25 20 20 23 29 29
10 14 31 51 46 18 18 22 21 21 17 15 16 13 9 7 6 9 10 10 12 15 17 20 24 26 25 21 21 22 22 22 24
8 8 15 28 45 58 44 31 30 28 28 24 26 29 19 12 8 10 13 14 14 17 18 18 23 23 22 23 27 26 20 24 28
11 10 9 19 32 42 43 43 39 37 36 37 33 38 35 24 19 13 20 21 24 27 28 28 23 23 23 22 24 30 28 24 24
12 12 12 9 11 27 38 50 59 64 60 56 54 49 43 44 33 24 19 34 40 46 50 62 56 32 28 30 28 28 34 34 29
27 22 19 17 14 18 22 14 16 35 43 56 53 61 63 65 52 39 34 45 50 59 72 80 83 73 46 36 38 36 33 36 32
24 26 28 23 26 27 28 29 15 14 35 44 61 53 65 66 71 66 54 54 61 74 91 87 87 85 81 89 75 48 48 40 37
20 28 28 26 41 40 40 41 37 28 54 48 59 57 54 62 81 83 93 94 76 75 90 98 94 86 91 88 91 97 88 68 58
20 20 32 47 38 41 41 40 47 52 57 61 72 80 76 72 71 88 96 97 97 96 91 98 96 85 88 93 90 89 87 93 89
8 19 21 27 29 37 37 37 32 42 54 70 74 83 73 85 82 91 94 93 97 98 97 97 91 75 84 89 90 82 84 84 84
12 13 11 10 13 26 30 38 34 38 31 59 78 84 87 86 95 93 99 97 95 97 95 95 98 90 74 64 78 92 88 77 85

GFSFLT1_500_rhum_063.txt.gz
RH
2 2 2 2 2 2 2 2 3 3 4 5 6 9 9 7 8 9 13 15 17 16 18 21 24 27 30 32 32 34 35 34 34
2 2 2 2 3 5 7 7 5 3 3 3 4 4 5 5 6 6 8 11 13 16 17 19 22 28 30 30 32 34 33 31 32
2 2 2 3 6 11 13 6 3 3 3 3 3 4 4 4 5 5 5 6 9 13 15 16 16 20 24 27 28 30 28 27 28
2 2 2 4 7 11 12 5 3 2 3 3 3 3 4 4 4 5 5 5 6 8 10 13 14 17 18 20 24 25 25 24 23
3 3 3 4 7 11 8 3 2 3 3 4 4 4 5 5 5 4 4 4 5 6 8 9 12 12 14 15 21 22 22 22 20
4 7 12 15 11 8 5 3 3 3 4 4 5 5 5 5 4 4 4 4 4 5 6 8 10 13 13 16 20 22 24 23 26
9 12 18 19 17 7 4 3 3 3 4 5 6 6 6 5 4 4 4 6 6 6 6 8 11 12 16 19 23 24 30 29 27
9 11 13 15 19 13 5 4 4 4 6 6 6 7 8 6 5 5 4 6 6 6 8 10 12 13 15 20 24 28 29 26 20
13 12 15 18 28 25 16 14 12 10 17 18 8 9 11 8 7 6 5 7 7 8 9 10 11 13 17 21 22 24 20 20 23
12 9 8 9 15 37 44 26 17 20 21 21 20 16 15 15 12 8 7 7 10 10 10 10 9 13 17 20 22 23 21 22 21
7 7 7 6 7 11 21 47 50 38 26 29 28 28 24 24 25 16 10 8 9 13 14 13 14 14 16 19 18 20 24 25 18
15 12 11 11 12 10 12 20 34 43 45 42 33 30 35 33 37 38 22 16 12 16 18 22 24 28 26 20 19 18 22 27 27
9 12 14 13 13 13 11 8 10 24 35 47 54 54 55 49 49 44 40 29 22 19 25 30 37 41 49 53 29 22 18 21 27
11 10 16 16 19 20 19 18 16 12 14 15 14 29 40 46 48 58 58 55 39 25 28 43 49 54 68 76 71 41 26 27 26
30 24 19 27 24 25 26 25 21 24 22 20 17 13 20 31 56 58 68 75 67 45 39 51 54 67 79 84 84 80 63 49 40
25 32 23 30 32 31 37 42 38 51 60 61 47 30 30 33 47 62 67 69 82 79 61 58 66 80 88 93 92 94 92 92 93
17 24 23 40 48 47 40 45 61 66 62 73 71 59 60 63 83 72 81 80 68 90 97 98 94 84 81 94 98 93 96 96 93
7 7 14 24 36 36 40 37 41 57 62 69 75 71 70 77 88 83 85 96 94 84 90 96 100 97 94 96 99 97 92 95 97
7 8 11 12 13 29 31 33 30 38 32 38 43 63 67 57 64 91 99 97 95 97 92 86 84 98 98 98 97 97 98 96 90
13 12 13 13 11 9 15 23 30 28 33 41 48 59 66 69 78 84 100 99 96 97 98 90 82 91 88 99 98 97 97 98 98

GFSFLT1_500_rhum_069.txt.gz
RH
3 2 2 2 2 2 3 4 6 8 7 4 3 2 2 2 2 2 2 3 4 4 5 6 7 7 8 9 8 9 11 12 16
3 2 2 2 2 2 3 3 5 8 6 4 2 2 2 2 3 3 3 4 4 4 4 4 4 6 6 7 7 8 9 11 13
2 2 2 2 2 2 3 5 6 6 4 3 2 2 2 3 3 4 4 4 4 4 4 4 4 4 5 6 7 8 8 10 11
2 2 2 2 4 6 8 9 8 6 3 2 2 2 2 3 4 4 5 4 4 4 3 4 5 5 5 6 8 8 9 10 11
2 2 3 4 5 6 7 9 10 7 4 3 2 2 3 4 4 5 5 5 4 4 4 4 6 6 6 7 8 8 9 10 12
4 3 4 4 6 8 9 9 9 10 8 5 3 3 4 5 6 7 7 6 5 5 5 5 6 7 7 8 10 8 8 12 16
5 6 9 10 11 10 10 9 10 14 16 14 11 6 6 12 15 10 10 10 8 7 6 6 7 8 8 9 10 8 10 15 17
10 12 15 15 14 10 6 5 6 7 10 16 23 21 18 17 17 18 17 15 14 11 8 7 7 9 10 10 10 9 12 16 16
11 11 12 12 10 7 5 4 4 5 5 6 8 16 27 29 24 23 26 24 24 21 16 10 8 9 11 12 13 11 12 16 18
6 5 6 6 7 8 10 10 10 10 9 9 9 10 12 20 31 36 36 32 31 32 31 31 14 9 11 14 16 16 14 15 18
6 7 7 7 8 7 6 6 7 11 12 14 15 14 12 10 14 24 32 40 49 48 44 39 38 27 15 15 18 20 22 24 24
10 12 11 10 11 10 10 11 11 13 16 18 18 19 21 23 22 20 20 25 37 51 59 59 55 46 35 24 23 24 28 34 37
17 18 17 18 20 19 30 33 30 27 24 23 25 27 28 33 36 37 37 42 41 43 32 36 57 66 60 51 31 31 36 40 47
21 27 31 31 32 38 28 33 38 36 38 31 32 35 44 42 39 48 63 67 70 73 76 61 50 48 73 75 70 42 37 50 57
38 54 56 43 45 36 38 36 19 16 35 29 27 29 36 37 45 66 64 72 90 92 94 95 94 82 62 80 92 89 56 48 57
43 43 51 59 60 72 18 10 9 7 7 9 25 28 29 39 63 69 67 72 84 92 98 99 98 98 95 83 83 84 92 85 58
13 18 24 32 14 9 10 9 8 8 15 17 16 23 38 50 52 46 44 46 51 58 67 74 81 86 83 91 94 91 85 84 86
10 9 7 8 8 10 9 8 8 13 16 15 18 18 16 14 12 12 17 35 37 46 54 62 79 95 98 98 98 98 97 97 93
11 10 8 9 9 9 8 9 15 18 14 9 9 12 13 8 6 6 7 17 40 46 53 55 51 65 97 99 97 96 99 100 100
9 10 10 9 9 8 9 15 18 11 9 10 13 12 8 7 7 7 8 9 11 16 23 27 49 62 100 99 89 96 93 98 95

GFSFLT1_500_rhum_072.txt.gz
RH
3 3 2 2 2 2 2 2 2 3 4 5 4 3 2 2 2 2 2 3 3 3 3 3 3 4 4 4 5 6 6 8 6
3 2 2 2 2 2 2 3 4 5 5 4 3 2 2 2 2 2 3 3 4 3 3 3 3 4 4 4 4 6 7 7 7
3 2 2 2 2 2 4 5 6 7 6 4 3 2 2 2 2 3 3 4 4 4 4 4 3 4 5 5 5 7 8 8 7
3 2 2 2 2 3 4 5 6 8 7 6 5 4 3 3 3 3 4 4 5 5 4 4 4 4 6 6 6 7 8 8 8
4 4 3 2 3 4 6 8 9 9 9 8 7 7 6 4 4 5 5 6 7 6 6 6 5 5 6 7 7 8 10 8 8
4 4 5 5 6 7 9 10 9 8 8 9 10 11 13 13 11 9 11 13 12 10 9 8 7 6 6 8 8 8 10 9 9
6 7 8 9 11 13 13 10 6 4 4 5 5 7 9 13 16 19 18 18 18 17 16 15 12 9 7 8 9 10 10 10 11
7 8 9 8 9 10 10 7 6 5 6 6 6 7 7 8 9 12 21 29 32 30 27 25 23 19 11 8 9 11 12 12 12
7 6 6 5 5 5 7 8 8 9 8 8 9 10 10 12 12 10 11 14 21 29 36 38 33 32 30 20 11 10 14 15 14
8 7 6 6 7 7 8 7 6 6 7 8 11 15 17 17 18 18 18 18 17 16 19 25 45 51 44 39 31 18 14 16 18
9 9 9 12 12 11 12 14 15 20 23 25 22 20 22 23 24 26 28 29 29 29 30 31 28 29 39 52 54 42 26 20 21
13 14 14 14 17 19 22 24 26 32 30 32 32 33 30 27 30 32 40 44 45 48 55 60 64 64 60 38 36 58 61 42 28
18 17 12 12 20 28 37 37 39 33 30 34 29 23 27 31 28 25 39 43 44 56 72 69 79 89 86 86 75 53 62 75 66
13 12 12 17 32 46 50 49 54 46 38 11 9 8 7 7 18 31 39 45 52 64 81 86 90 94 97 97 95 93 86 66 72
17 27 28 28 38 46 48 60 66 66 23 8 8 7 8 13 18 25 35 46 61 61 53 66 60 66 67 66 66 63 81 97 88
16 16 15 15 23 26 30 54 24 10 9 8 7 8 13 17 22 34 40 33 25 20 31 35 51 52 67 78 80 86 83 90 99
17 16 15 15 13 11 9 8 8 9 10 8 7 10 16 17 12 11 11 14 11 8 8 9 22 23 34 39 40 49 65 89 92
20 16 15 15 13 11 10 8 9 9 9 8 12 16 16 11 10 11 11 8 8 8 8 10 12 14 18 28 31 46 46 54 64
19 19 21 32 14 9 9 11 10 9 8 12 18 14 10 9 8 6 6 7 8 9 10 11 11 11 12 14 17 20 21 47 98
22 20 15 10 9 11 13 13 12 9 10 18 11 10 11 9 6 5 6 8 11 12 13 11 10 9 12 18 17 18 28 34 60

GFSFLT1_500_rhum_075.txt.gz
RH
3 3 2 2 2 2 2 2 2 4 5 5 4 3 2 2 2 2 2 2 2 3 4 3 3 3 3 3 4 3 4 6 6
3 3 2 2 2 2 2 2 3 4 5 6 5 4 3 3 3 2 2 2 2 3 4 4 4 4 3 4 5 4 5 6 7
4 3 2 2 2 2 2 3 3 4 6 7 6 6 6 5 4 4 4 3 3 4 5 5 5 5 4 4 6 6 6 7 8
4 4 4 3 2 3 3 5 6 7 8 8 8 8 8 8 8 7 6 6 8 8 8 8 7 6 6 6 6 7 8 8 10
5 4 4 4 5 5 6 8 10 10 8 4 4 4 5 6 6 8 12 14 15 15 15 15 14 12 10 9 7 7 8 8 10
5 5 5 6 7 9 10 11 10 7 5 4 4 5 5 6 6 7 7 9 14 19 21 23 23 22 20 17 12 9 8 10 10
6 6 6 7 7 6 6 7 7 7 6 7 8 7 7 8 8 9 10 10 11 10 12 14 21 29 31 29 25 18 10 9 11
7 7 7 6 6 5 5 5 6 7 8 7 6 7 8 11 13 15 15 16 17 17 17 17 16 16 18 30 39 35 30 18 11
8 8 8 8 7 7 8 8 8 8 8 9 14 16 17 17 18 20 21 21 23 25 26 27 28 28 26 23 24 41 49 43 28
9 9 9 9 10 12 12 12 12 15 17 19 29 30 30 31 31 30 25 25 27 30 36 37 36 38 48 51 47 44 33 39 55
10 10 11 13 14 13 12 15 19 23 28 33 33 26 30 32 28 26 30 31 23 22 30 32 35 43 57 59 68 77 72 67 40
14 13 14 17 17 11 11 18 26 37 39 38 41 37 27 9 9 8 8 8 15 23 26 28 37 50 59 64 73 84 82 87 86
19 14 16 16 12 12 16 26 31 38 42 55 59 56 21 8 8 7 8 13 17 19 27 39 48 48 44 36 41 50 59 67 66
18 19 22 15 18 22 21 20 28 31 42 55 51 29 10 9 8 9 12 17 19 27 30 22 17 13 12 20 18 34 40 66 65
18 18 15 18 18 18 16 13 14 13 17 23 10 9 9 9 8 11 15 18 13 11 11 12 10 8 7 8 10 11 10 20 44
20 18 17 18 18 18 16 15 14 12 10 10 8 9 10 9 10 14 16 11 12 14 10 8 7 8 8 9 10 11 11 12 15
22 20 19 20 20 18 17 15 18 21 11 9 10 12 11 10 14 15 12 11 10 8 8 8 8 10 11 12 12 11 10 9 14
23 23 22 22 22 19 17 22 29 19 9 11 14 16 11 12 16 11 11 11 8 7 8 10 12 12 14 16 13 12 10 10 11
28 29 27 25 23 20 20 18 11 9 14 17 12 10 10 16 15 11 10 7 7 9 12 14 14 16 18 17 15 12 12 13 15
33 31 28 30 40 50 37 22 10 15 22 18 11 10 17 13 11 10 7 6 10 11 12 13 17 17 18 19 17 16 20 20 21

GFSFLT1_500_rhum_078.txt.gz
RH
4 3 2 2 1 1 2 2 2 3 3 4 5 5 5 4 4 4 4 4 3 3 3 3 4 4 4 4 4 4 5 5 6
4 3 3 2 2 2 2 2 2 3 5 6 6 7 6 6 6 5 5 5 5 5 6 6 6 6 6 5 5 5 6 6 7
4 4 4 3 3 3 3 3 5 6 7 8 7 6 4 4 4 5 5 6 7 8 9 10 12 12 11 10 9 8 7 7 8
5 4 4 4 4 4 5 6 8 9 10 8 4 3 3 4 5 5 6 6 6 7 9 11 12 15 18 18 18 15 11 8 8
6 5 5 5 6 7 8 8 8 8 6 5 4 5 6 6 7 8 7 8 9 10 12 12 12 13 16 20 23 25 24 17 10
7 6 6 6 6 6 5 5 5 5 5 5 5 6 6 9 11 10 12 14 15 15 16 16 16 16 16 16 15 17 24 28 27
7 7 7 6 7 6 6 6 6 6 6 6 6 6 10 16 18 16 17 17 18 18 18 20 20 22 24 27 28 26 22 23 29
9 8 8 8 8 7 7 7 8 9 9 10 12 14 20 26 25 24 23 23 23 22 20 22 23 27 32 32 31 35 41 38 29
11 10 9 9 9 10 11 12 13 13 13 14 18 21 26 30 25 26 25 24 23 25 23 17 15 25 27 30 32 37 47 52 58
15 12 11 10 11 13 15 15 11 12 15 20 26 32 35 35 34 29 10 8 8 7 7 8 16 21 24 27 37 47 50 50 54
18 16 14 13 13 16 18 14 12 13 21 26 35 38 45 54 51 39 11 8 7 7 10 15 19 21 26 34 37 34 26 34 43
20 20 20 18 15 18 19 14 17 21 22 23 29 29 45 58 49 18 10 9 8 8 12 16 19 18 16 14 16 12 13 13 18
23 27 28 23 19 22 18 17 20 20 16 15 15 16 26 38 13 9 10 9 9 11 15 16 12 10 10 10 9 6 7 8 10
28 28 28 23 20 19 16 19 18 18 17 15 14 12 11 10 9 10 10 10 10 13 16 13 10 9 8 7 7 8 8 9 10
27 25 24 24 22 20 18 18 19 19 18 15 16 19 15 10 10 12 12 10 12 15 14 10 9 7 6 7 7 9 10 12 13
26 28 28 26 24 21 21 21 22 22 20 17 24 25 13 11 13 14 12 12 14 14 11 10 6 5 5 7 10 11 13 15 15
31 30 27 25 24 23 23 24 24 22 19 20 27 17 11 14 14 13 12 14 14 11 11 8 6 6 9 11 12 14 15 16 17
33 30 29 27 27 26 27 26 26 25 31 41 27 18 12 22 17 12 15 14 12 14 10 6 7 10 10 14 16 17 16 20 19
34 33 31 32 34 33 35 33 31 37 50 29 18 12 23 25 19 12 15 12 14 11 8 8 11 11 14 16 18 17 19 23 22
41 44 46 45 44 45 36 34 42 58 52 38 14 27 26 20 14 14 14 11 12 8 8 9 10 14 15 17 16 13 21 22 23

GFSFLT1_500_rhum_081.txt.gz
RH
4 3 3 2 2 2 2 2 2 2 3 5 6 7 7 6 3 3 4 5 5 6 6 6 7 8 9 10 10 9 8 7 7
4 4 3 3 3 2 2 3 4 5 6 8 8 7 4 3 4 4 5 7 6 5 6 6 9 11 11 12 13 13 15 13 11
4 4 4 4 4 4 4 5 6 8 9 9 7 4 4 4 5 6 12 12 11 10 9 11 13 13 12 12 13 14 16 19 18
6 5 5 5 5 5 6 7 7 6 6 5 5 5 5 5 5 14 17 17 15 15 15 15 16 15 15 15 16 16 16 16 18
7 6 6 6 6 6 6 5 5 5 6 6 6 6 5 6 11 19 21 18 18 17 17 17 17 16 16 16 18 21 25 25 23
9 8 8 7 7 7 8 8 7 8 9 10 10 10 11 13 17 23 24 20 20 19 18 20 18 17 15 11 17 20 22 23 24
10 10 9 8 8 9 8 8 10 12 13 12 12 12 15 17 20 25 26 22 18 12 12 12 12 10 8 11 16 19 21 23 30
12 11 10 9 9 9 10 11 13 14 13 12 14 18 21 24 28 29 32 30 22 10 7 7 7 7 10 15 18 19 22 30 33
16 15 13 12 10 10 12 14 17 16 12 12 18 22 26 29 31 35 46 44 38 17 8 8 7 9 14 17 18 21 23 22 18
19 18 16 14 12 13 14 16 19 16 14 17 22 22 23 27 24 33 48 42 23 9 9 8 8 11 14 17 16 15 12 11 9
23 22 20 18 18 20 19 18 21 19 17 21 22 19 17 17 14 17 20 20 8 9 9 10 10 13 16 13 11 10 8 8 7
25 23 22 22 26 27 23 21 22 18 20 21 20 20 18 15 14 13 11 10 9 10 13 12 11 14 14 11 10 7 7 6 6
33 28 26 26 28 28 22 21 20 18 20 20 21 20 20 16 18 24 23 11 12 16 17 15 12 15 12 10 8 5 6 7 8
42 38 34 31 27 24 24 23 23 20 20 20 21 22 21 18 25 24 16 10 16 19 19 12 13 14 12 9 5 5 6 7 11
49 44 38 31 26 29 29 26 25 22 22 23 23 24 22 21 29 23 13 13 22 19 14 12 14 13 10 6 5 6 8 9 9
54 47 38 33 30 32 30 29 27 26 26 28 35 34 30 43 44 26 13 20 23 19 14 13 14 11 9 5 6 7 8 9 11
56 43 37 38 36 36 40 38 33 30 30 58 57 44 41 50 33 16 16 23 21 16 14 14 12 11 7 6 8 8 10 10 15
49 43 40 40 39 36 35 35 38 38 58 46 44 46 52 57 39 18 21 19 16 15 15 13 12 10 6 7 8 11 11 13 14
49 46 45 46 44 43 43 47 48 57 76 45 43 56 57 43 20 30 27 19 16 16 14 12 12 8 7 8 12 12 14 15 11
54 53 54 50 51 57 58 56 48 50 77 49 55 54 33 17 34 33 32 23 15 14 13 15 12 8 8 9 12 14 16 12 10

GFSFLT1_500_rhum_084.txt.gz
RH
5 4 3 3 2 2 2 2 3 4 5 6 8 8 6 3 4 5 5 13 17 17 14 13 12 13 15 14 13 13 14 14 14
4 4 4 4 3 3 4 4 5 6 7 8 6 5 4 5 5 5 13 18 19 18 16 16 15 16 16 14 14 15 16 16 17
5 5 4 4 4 4 5 6 6 6 5 5 6 6 6 6 5 8 17 20 20 18 17 16 16 17 16 15 15 13 14 16 20
6 6 6 6 5 6 6 6 6 6 6 7 10 10 10 11 12 14 17 19 22 18 16 14 13 13 14 14 11 10 13 15 16
9 8 7 7 7 7 8 8 8 8 11 14 14 13 13 15 17 19 20 23 26 22 16 12 9 7 8 8 8 11 13 15 16
12 10 10 9 8 9 10 10 11 13 15 15 13 15 19 21 23 25 27 27 31 33 25 18 12 9 7 7 9 12 15 16 18
13 12 11 10 10 10 11 11 14 17 18 15 15 18 22 23 24 25 24 19 27 34 30 21 10 10 10 12 11 13 15 16 17
14 13 12 11 11 11 11 13 16 19 20 16 17 21 24 23 23 22 18 15 14 23 24 9 10 10 12 13 12 13 15 14 12
19 17 17 15 14 14 15 16 18 20 22 20 20 22 24 24 24 21 18 17 14 12 10 9 11 16 16 13 12 14 13 12 9
25 22 20 19 18 19 20 22 21 20 22 21 21 23 23 24 24 22 19 24 28 32 21 11 17 20 18 14 14 14 12 10 7
31 27 23 22 21 21 25 27 25 21 22 22 21 22 23 23 25 26 19 27 34 26 14 13 20 22 17 13 14 13 11 9 5
39 33 28 25 24 25 27 28 26 23 24 25 24 23 23 25 25 26 24 23 39 30 16 13 22 23 18 12 14 11 10 6 4
47 38 38 36 30 30 30 27 25 26 28 28 26 25 26 27 32 39 27 39 48 31 15 20 26 26 17 13 14 11 8 5 5
52 54 52 47 42 37 32 26 29 31 30 32 30 29 30 48 69 43 36 46 47 40 17 23 26 22 16 14 13 11 6 6 8
62 59 57 56 52 44 37 33 36 35 40 41 37 37 37 70 45 61 46 52 52 41 22 27 26 21 17 15 12 10 6 7 9
52 53 63 65 60 45 41 45 45 45 42 45 44 40 67 71 52 54 61 55 42 33 29 29 25 23 18 14 12 9 6 8 10
45 57 63 65 56 46 43 44 45 45 45 51 54 50 64 67 56 55 53 39 24 32 31 27 26 22 16 14 12 8 6 7 10
48 56 59 53 49 50 48 50 54 55 58 60 58 54 58 64 55 58 47 23 30 33 27 29 25 16 14 13 12 8 7 8 12
60 54 50 50 51 55 56 60 63 64 62 63 62 58 61 59 58 49 20 22 32 27 30 25 20 14 14 14 12 8 8 12 14
62 56 57 59 61 62 65 67 68 66 64 66 61 62 63 61 56 37 22 28 31 32 24 18 14 14 15 15 11 10 12 15 17

GFSFLT1_500_rhum_087.txt.gz
RH
6 4 3 3 3 2 3 3 4 5 7 8 6 5 6 6 6 5 11 17 18 20 19 19 18 15 15 15 13 13 12 12 13
5 4 4 4 4 4 4 5 6 6 5 5 7 8 9 10 11 12 14 16 18 22 20 17 17 14 10 10 10 11 11 12 12
5 5 5 5 5 5 6 6 6 6 7 8 12 14 13 15 17 19 20 22 22 24 24 20 18 17 12 10 9 9 10 12 12
6 6 6 6 6 6 6 8 8 8 11 15 16 16 17 21 22 23 24 24 24 24 27 28 22 15 14 12 13 16 15 13 13
9 8 8 8 8 8 9 10 10 13 16 17 16 18 22 23 23 24 25 26 24 19 20 23 21 11 12 13 16 19 16 13 13
12 11 10 10 9 9 10 11 14 16 20 20 19 21 23 24 25 27 28 28 30 25 20 15 14 10 14 16 21 19 17 13 14
16 14 13 13 12 13 14 14 16 18 21 22 22 23 25 26 28 28 30 30 34 34 33 34 26 13 16 25 25 21 15 14 13
17 17 15 16 16 16 16 17 19 20 22 24 25 25 26 27 28 30 34 32 26 36 39 34 24 16 19 24 25 21 15 14 13
20 18 17 18 17 17 17 18 21 24 23 23 24 24 27 28 28 30 32 34 32 29 39 41 33 17 17 22 26 19 14 13 13
27 25 22 20 21 20 20 22 26 27 25 24 26 26 27 29 30 31 33 42 40 29 41 47 41 17 19 25 25 18 13 14 12
36 32 30 26 23 22 22 24 28 29 26 25 26 28 30 32 31 34 48 66 49 36 44 48 45 24 22 26 22 15 14 14 12
42 42 41 35 31 28 27 29 30 29 26 29 30 32 35 38 37 42 65 61 60 46 46 48 46 33 23 27 22 16 15 14 12
39 39 41 44 43 45 42 39 38 31 30 34 34 38 40 42 41 52 65 57 64 60 58 51 45 32 26 28 22 17 29 56 42
37 36 42 52 59 56 54 51 44 39 40 43 45 47 45 48 49 56 65 60 56 54 51 47 33 30 30 27 24 18 14 14 17
33 36 44 62 60 57 63 62 49 44 47 47 46 49 53 55 54 54 63 61 49 46 43 40 36 34 28 26 28 18 14 13 12
32 35 40 52 49 55 62 64 53 48 48 51 52 56 58 58 56 53 59 58 56 46 41 36 31 26 25 30 25 16 14 13 10
37 47 50 49 49 53 60 56 48 50 53 53 53 54 60 60 59 59 59 60 56 48 34 26 25 24 31 31 21 14 14 13 10
42 45 48 57 50 55 52 47 47 51 56 57 52 52 58 62 62 63 60 60 55 39 29 28 29 31 33 29 16 14 14 14 10
83 66 57 59 60 56 52 51 56 60 68 63 61 57 55 57 59 61 60 57 52 35 34 33 31 37 34 19 14 15 14 12 10
92 93 77 76 74 69 62 60 59 74 72 61 62 62 66 64 54 50 62 53 49 41 34 33 35 42 36 16 16 15 12 11 12